GUG702 MGGT-MNMG

Flight info

Callsign GUG702
Flight time N/A
Altitude 35000
Route VILDA2 KAPAN UG436 CAT UA317 URPOS
Aircraft A320/M-SDE3FGHIRWY/LB1

Departure

Time 2026-04-25 12:48
Airport La Aurora International Airport (MGGT)

Arrival

Time N/A
Airport Augusto C. Sandino (Managua) International Airport (MNMG)
Time Latitude Longitude Altitude Speed Heading
2026-04-25 12:32 14.58764 -90.52946 4930 ft 0 kts 287°
2026-04-25 12:41 14.58761 -90.52935 4935 ft 4 kts 287°
2026-04-25 12:41 14.58760 -90.52930 4937 ft 4 kts 287°
2026-04-25 12:41 14.58752 -90.52903 4936 ft 4 kts 287°
2026-04-25 12:41 14.58744 -90.52877 4935 ft 4 kts 288°
2026-04-25 12:42 14.58734 -90.52851 4935 ft 4 kts 306°
2026-04-25 12:42 14.58725 -90.52840 4934 ft 4 kts 357°
2026-04-25 12:42 14.58699 -90.52846 4936 ft 1 kts 17°
2026-04-25 12:43 14.58751 -90.52829 4935 ft 15 kts 17°
2026-04-25 12:44 14.58788 -90.52809 4935 ft 7 kts 44°
2026-04-25 12:44 14.58790 -90.52723 4934 ft 15 kts 109°
2026-04-25 12:44 14.58887 -90.52638 4937 ft 7 kts 16°
2026-04-25 12:45 14.58923 -90.52627 4933 ft 5 kts 17°
2026-04-25 12:45 14.58952 -90.52618 4935 ft 4 kts 17°
2026-04-25 12:45 14.59029 -90.52592 4939 ft 14 kts 18°
2026-04-25 12:46 14.59161 -90.52541 4943 ft 26 kts 22°
2026-04-25 12:46 14.59354 -90.52486 4950 ft 27 kts 15°
2026-04-25 12:46 14.59524 -90.52432 4957 ft 25 kts 17°
2026-04-25 12:46 14.59588 -90.52365 4959 ft 5 kts 123°
2026-04-25 12:47 14.59551 -90.52355 4954 ft 5 kts 190°
2026-04-25 12:47 14.59464 -90.52383 4956 ft 37 kts 198°
2026-04-25 12:47 14.58964 -90.52544 4939 ft 111 kts 197°
2026-04-25 12:47 14.58034 -90.52844 4911 ft 167 kts 197°
2026-04-25 12:48 14.56831 -90.53230 5291 ft 184 kts 195°
2026-04-25 12:48 14.55533 -90.53244 5906 ft 197 kts 169°
2026-04-25 12:48 14.54113 -90.52910 6131 ft 221 kts 167°
2026-04-25 12:48 14.52537 -90.52541 6365 ft 243 kts 168°
2026-04-25 12:49 14.50800 -90.52164 6679 ft 268 kts 169°
2026-04-25 12:49 14.48895 -90.51780 7167 ft 288 kts 170°
2026-04-25 12:49 14.46890 -90.51402 7945 ft 296 kts 170°
2026-04-25 12:49 14.44841 -90.51033 8778 ft 302 kts 171°
2026-04-25 12:50 14.42782 -90.50673 9608 ft 306 kts 171°
2026-04-25 12:50 14.40618 -90.50300 10033 ft 327 kts 171°
2026-04-25 12:50 14.38290 -90.49901 10318 ft 351 kts 171°
2026-04-25 12:50 14.35825 -90.49479 10817 ft 365 kts 171°
2026-04-25 12:51 14.33294 -90.49048 11536 ft 371 kts 171°
2026-04-25 12:51 14.30734 -90.48610 12292 ft 376 kts 172°
2026-04-25 12:51 14.28144 -90.48166 13057 ft 380 kts 171°
2026-04-25 12:51 14.25518 -90.47717 13760 ft 384 kts 172°
2026-04-25 12:52 14.22866 -90.47266 14474 ft 388 kts 172°
2026-04-25 12:52 14.20194 -90.46813 15207 ft 390 kts 173°
2026-04-25 12:52 14.17505 -90.46357 15870 ft 393 kts 173°
2026-04-25 12:52 14.14826 -90.45773 16583 ft 398 kts 162°
2026-04-25 12:53 14.12446 -90.44291 17236 ft 407 kts 139°
2026-04-25 12:53 14.10828 -90.41910 18119 ft 410 kts 116°
2026-04-25 12:53 14.10220 -90.39043 18995 ft 414 kts 95°
2026-04-25 12:53 14.10435 -90.36091 19880 ft 414 kts 84°
2026-04-25 12:54 14.11095 -90.33207 20640 ft 414 kts 78°
2026-04-25 12:54 14.11923 -90.30347 21163 ft 419 kts 76°
2026-04-25 12:54 14.12745 -90.27446 21598 ft 424 kts 78°
2026-04-25 12:54 14.13456 -90.24533 22135 ft 425 kts 81°
2026-04-25 12:55 14.14059 -90.21552 22727 ft 424 kts 83°
2026-04-25 12:55 14.14409 -90.19543 23183 ft 422 kts 84°
2026-04-25 12:55 14.15022 -90.15628 24202 ft 413 kts 84°
2026-04-25 12:55 14.15464 -90.12722 24898 ft 409 kts 83°
2026-04-25 12:56 14.15908 -90.09848 25453 ft 408 kts 83°
2026-04-25 12:56 14.16267 -90.06945 25896 ft 408 kts 89°
2026-04-25 12:56 14.16120 -90.04031 26303 ft 408 kts 99°
2026-04-25 12:56 14.15411 -90.01195 26671 ft 411 kts 110°
2026-04-25 12:57 14.14152 -89.98541 27021 ft 415 kts 120°
2026-04-25 12:57 14.12431 -89.96134 27358 ft 420 kts 126°
2026-04-25 12:57 14.10622 -89.93758 27689 ft 422 kts 126°
2026-04-25 12:57 14.08805 -89.91367 27986 ft 425 kts 125°
2026-04-25 12:58 14.06978 -89.88955 28222 ft 430 kts 123°
2026-04-25 12:58 14.05122 -89.86501 28401 ft 437 kts 123°
2026-04-25 12:58 14.03230 -89.84029 28644 ft 442 kts 124°
2026-04-25 12:58 14.01298 -89.81560 28921 ft 445 kts 124°
2026-04-25 12:59 13.99333 -89.79083 29180 ft 449 kts 124°
2026-04-25 12:59 13.97373 -89.76622 29427 ft 452 kts 124°
2026-04-25 12:59 13.95376 -89.74111 29705 ft 455 kts 124°
2026-04-25 12:59 13.93376 -89.71583 30030 ft 456 kts 125°
2026-04-25 13:00 13.91380 -89.69050 30402 ft 454 kts 126°
2026-04-25 13:00 13.87438 -89.64040 31278 ft 448 kts 126°
2026-04-25 13:00 13.85478 -89.61548 31627 ft 447 kts 126°
2026-04-25 13:01 13.83517 -89.59054 31853 ft 452 kts 124°
2026-04-25 13:01 13.81529 -89.56524 31970 ft 458 kts 124°
2026-04-25 13:01 13.79516 -89.53965 32144 ft 462 kts 124°
2026-04-25 13:01 13.77491 -89.51393 32460 ft 462 kts 124°
2026-04-25 13:02 13.75467 -89.48827 32828 ft 462 kts 124°
2026-04-25 13:02 13.73445 -89.46269 33194 ft 461 kts 124°
2026-04-25 13:02 13.71450 -89.43747 33548 ft 460 kts 124°
2026-04-25 13:02 13.69431 -89.41195 33917 ft 459 kts 124°
2026-04-25 13:03 13.67414 -89.38645 34257 ft 459 kts 124°
2026-04-25 13:03 13.65400 -89.36096 34550 ft 460 kts 124°
2026-04-25 13:03 13.63383 -89.33536 34717 ft 460 kts 124°
2026-04-25 13:03 13.61368 -89.30983 34758 ft 459 kts 124°
2026-04-25 13:04 13.57350 -89.25910 34755 ft 457 kts 124°
2026-04-25 13:04 13.53347 -89.20855 34756 ft 455 kts 124°
2026-04-25 13:05 13.49359 -89.15818 34755 ft 453 kts 124°